This demonstration page uses our WeatherBlox Daily Observations layout. Learn more.

Left ArrowRight Arrow

36.17497, -115.13722

Hourly Observations for March 4, 2021

Temp ( °F °C ) Dew Point ( °F °C ) Humidity (%) Winds ( mph kmh ) Pressure ( in mb ) Visibility ( mi km ) Precip ( " mm )
12:53 am 00:53 Cloudy 53 11.7 29 -1.7 40 40 SSE 10 17 29.95 1014 10 16 0.00 0.00
1:53 am 01:53 Mostly Cloudy 50 10 28 -2.2 43 43 SE 3 6 29.98 1015 10 16 0.00 0.00
2:53 am 02:53 Clear 49 9.4 28 -2.2 44 44 Calm 30.01 1016 10 16 0.00 0.00
3:53 am 03:53 Clear 46 7.8 28 -2.2 50 50 NNW 5 7 30.04 1017 10 16 0.00 0.00
4:53 am 04:53 Clear 46 7.8 28 -2.2 50 50 N 7 11 30.08 1019 10 16 0.00 0.00
5:53 am 05:53 Clear 44 6.7 26 -3.3 49 49 WNW 3 6 30.12 1020 10 16 0.00 0.00
6:53 am 06:53 Sunny 47 8.3 27 -2.8 46 46 Calm 30.16 1021 10 16 0.00 0.00
7:53 am 07:53 Sunny 51 10.6 29 -1.7 43 43 N 6 9 30.20 1023 10 16 0.00 0.00
8:53 am 08:53 Sunny 53 11.7 32 0 45 45 SSW 3 6 30.22 1023 10 16 0.00 0.00
9:53 am 09:53 Sunny 57 13.9 30 -1.1 36 36 Calm 30.22 1024 10 16 0.00 0.00
10:53 am 10:53 Sunny 59 15 28 -2.2 31 31 VRB 3 6 30.22 1023 10 16 0.00 0.00
11:53 am 11:53 Sunny 63 17.2 28 -2.2 27 27 E 13 20 30.21 1023 10 16 0.00 0.00
12:53 pm 12:53 Sunny 64 17.8 27 -2.8 25 25 VRB 6 9 30.19 1023 10 16 0.00 0.00
1:53 pm 13:53 Sunny 65 18.3 26 -3.3 23 23 SE 6 9 30.19 1022 10 16 0.00 0.00
2:53 pm 14:53 Sunny 67 19.4 26 -3.3 21 21 Calm 30.19 1022 10 16 0.00 0.00
3:53 pm 15:53 Sunny 68 20 25 -3.9 20 20 VRB 5 7 30.19 1022 10 16 0.00 0.00
4:53 pm 16:53 Sunny 67 19.4 25 -3.9 20 20 E 8 13 30.20 1023 10 16 0.00 0.00
5:53 pm 17:53 Clear 64 17.8 24 -4.4 22 22 ENE 5 7 30.22 1023 10 16 0.00 0.00
6:53 pm 18:53 Clear 63 17.2 25 -3.9 24 24 Calm 30.22 1024 10 16 0.00 0.00
7:53 pm 19:53 Clear 60 15.6 26 -3.3 27 27 W 3 6 30.24 1024 10 16 0.00 0.00
8:53 pm 20:53 Clear 56 13.3 26 -3.3 32 32 NW 6 9 30.25 1024 10 16 0.00 0.00
9:53 pm 21:53 Clear 55 12.8 27 -2.8 34 34 W 6 9 30.27 1025 10 16 0.00 0.00
10:53 pm 22:53 Clear 52 11.1 25 -3.9 35 35 NW 6 9 30.28 1025 10 16 0.00 0.00
11:53 pm 23:53 Clear 51 10.6 26 -3.3 38 38 NW 5 7 30.29 1026 10 16 0.00 0.00

Powered by AerisWeather